Angleton, TX

3:56 PM CST on December 07, 2019 (GMT -0600)
Brazoria County

Weather History for KLBX - June, 2019

Change the Weather History Date:

Friday, June 14, 2019

  Actual Average Record
Temperature  
Mean Temperature 80 °F -  
Max Temperature 87 °F 86 °F 98 °F (2002)
Min Temperature 73 °F 71 °F 66 °F (2006)
Cooling Degree Days 15    
Growing Degree Days 30 (Base 50)    
Moisture  
Dew Point 70 °F    
Average Humidity 70    
Maximum Humidity 93    
Minimum Humidity 49    
Precipitation  
Precipitation 0.00 in - - ()
Sea Level Pressure  
Sea Level Pressure 30.02 in    
Wind  
Wind Speed 4 mph (SSE)    
Max Wind Speed 16 mph    
Max Gust Speed -    
Visibility 10 miles    
Events      
Averages and records for this station are not official NWS values.
T = Trace of Precipitation, MM = Missing Value Source: NWS Daily Summary

Daily Weather History Graph

Daily Weather History Graph

Search for Another Location

Airport or City:

Astronomy

Jun. 14, 2019 Rise Set
Actual Time 6:22 AM CDT 8:21 PM CDT
Civil Twilight 5:55 AM CDT 8:49 PM CDT
Nautical Twilight 5:22 AM CDT 9:21 PM CDT
Astronomical Twilight 4:47 AM CDT 9:56 PM CDT
Moon 5:56 PM CDT (6/14) 4:25 AM CDT (6/14)
Length of Visible Light 14h 53m
Length of Day
13h 59m
Waxing Gibbous, 92% of the Moon is Illuminated
Jun 14
Waxing Gibbous
Jun 17
Full
Jun 25
Last Quarter
Jul 2
New
Jul 9
First Quarter

Hourly Weather History & Observations

Time (CDT) Temp. Heat Index Dew Point Humidity Pressure Visibility Wind Dir Wind Speed Gust Speed Precip Events Conditions
12:53 AM 75.9 °F - 71.1 °F 85% 30.04 in 10.0 mi Calm Calm - N/A   Mostly Cloudy
1:53 AM 75.9 °F - 72.0 °F 87% 30.03 in 10.0 mi Calm Calm - N/A   Mostly Cloudy
2:53 AM 75.0 °F - 72.0 °F 90% 30.03 in 10.0 mi Calm Calm - N/A   Scattered Clouds
3:53 AM 75.0 °F - 72.0 °F 90% 30.04 in 9.0 mi Calm Calm - N/A   Scattered Clouds
4:53 AM 73.9 °F - 71.1 °F 91% 30.03 in 8.0 mi Calm Calm - N/A   Clear
5:53 AM 73.0 °F - 71.1 °F 93% 30.04 in 7.0 mi Calm Calm - N/A   Partly Cloudy
6:53 AM 73.9 °F - 72.0 °F 93% 30.04 in 8.0 mi Calm Calm - N/A   Partly Cloudy
7:53 AM 79.0 °F - 72.0 °F 79% 30.04 in 10.0 mi SSE 4.6 mph - N/A   Clear
8:53 AM 82.0 °F 86.3 °F 71.1 °F 69% 30.05 in 10.0 mi South 6.9 mph - N/A   Clear
9:53 AM 84.0 °F 87.8 °F 69.1 °F 61% 30.06 in 10.0 mi South 8.1 mph - N/A   Clear
10:53 AM 86.0 °F 88.8 °F 66.9 °F 53% 30.06 in 10.0 mi SSE 11.5 mph - N/A   Clear
11:53 AM 87.1 °F 89.2 °F 66.0 °F 49% 30.06 in 10.0 mi SSE 10.4 mph - N/A   Clear
12:53 PM 87.1 °F 90.6 °F 68.0 °F 53% 30.05 in 10.0 mi SSE 11.5 mph - N/A   Clear
1:53 PM 87.1 °F 91.3 °F 69.1 °F 55% 30.03 in 10.0 mi SSE 11.5 mph - N/A   Clear
2:53 PM 87.1 °F 90.6 °F 68.0 °F 53% 30.02 in 10.0 mi SE 13.8 mph - N/A   Clear
3:53 PM 86.0 °F 90.7 °F 70.0 °F 59% 30.00 in 10.0 mi SE 16.1 mph - N/A   Scattered Clouds
4:53 PM 87.1 °F 91.3 °F 69.1 °F 55% 29.99 in 10.0 mi SSE 13.8 mph - N/A   Clear
5:53 PM 86.0 °F 89.4 °F 68.0 °F 55% 29.97 in 10.0 mi SE 8.1 mph - N/A   Partly Cloudy
6:53 PM 84.0 °F 87.0 °F 68.0 °F 58% 29.96 in 10.0 mi SE 8.1 mph - N/A   Scattered Clouds
7:53 PM 82.0 °F 85.9 °F 70.0 °F 67% 29.97 in 10.0 mi SE 6.9 mph - N/A   Clear
8:53 PM 79.0 °F - 70.0 °F 74% 29.96 in 10.0 mi SE 3.5 mph - N/A   Partly Cloudy